"Period start","avg(HW err(1)/warn(2) (#))","avg(Visibility (m))","avg(Weather code (#))","avg(Precip intensity (mm/h))","min(HW err(1)/warn(2) (#))","max(HW err(1)/warn(2) (#))","std(HW err(1)/warn(2) (#))","med(HW err(1)/warn(2) (#))","min(Visibility (m))","max(Visibility (m))","std(Visibility (m))","med(Visibility (m))","min(Weather code (#))","max(Weather code (#))","std(Weather code (#))","med(Weather code (#))","min(Precip intensity (mm/h))","max(Precip intensity (mm/h))","std(Precip intensity (mm/h))","med(Precip intensity (mm/h))"
2016-06-19 00:00:00,0,47219,0,0.00,0,0,0,0,35461,50000,4546,50000,0,0,0,0,0.00,0.00,0.00,0.00
2016-06-19 00:10:00,0,46974,0,0.00,0,0,0,0,41128,50000,3217,47927,0,0,0,0,0.00,0.00,0.00,0.00
2016-06-19 00:20:00,0,43614,0,0.00,0,0,0,0,34253,50000,5421,42704,0,0,0,0,0.00,0.00,0.00,0.00
2016-06-19 00:30:00,0,44948,0,0.00,0,0,0,0,36073,50000,4127,45028,0,0,0,0,0.00,0.00,0.00,0.00
2016-06-19 00:40:00,0,45619,0,0.00,0,2,1,0,40813,50000,3353,44745,0,0,0,0,0.00,0.00,0.00,0.00
2016-06-19 00:50:00,0,44926,0,0.00,0,0,0,0,32596,50000,6126,47924,0,0,0,0,0.00,0.00,0.00,0.00
2016-06-19 01:00:00,0,42662,0,0.00,0,0,0,0,31964,50000,5979,44696,0,0,0,0,0.00,0.00,0.00,0.00
2016-06-19 01:10:00,0,44484,0,0.00,0,0,0,0,31375,50000,6508,47716,0,0,0,0,0.00,0.00,0.00,0.00
2016-06-19 01:20:00,0,43897,0,0.00,0,0,0,0,38206,49305,3313,44257,0,0,0,0,0.00,0.00,0.00,0.00
2016-06-19 01:30:00,0,42292,0,0.00,0,0,0,0,21943,50000,10087,49092,0,0,0,0,0.00,0.00,0.00,0.00
2016-06-19 01:40:00,0,44434,0,0.00,0,0,0,0,32480,50000,6649,47036,0,0,0,0,0.00,0.00,0.00,0.00
2016-06-19 01:50:00,0,37694,0,0.00,0,0,0,0,28488,50000,7082,37251,0,0,0,0,0.00,0.00,0.00,0.00
2016-06-19 02:00:00,0,44195,0,0.00,0,2,1,0,36458,50000,4670,44940,0,0,0,0,0.00,0.00,0.00,0.00
2016-06-19 02:10:00,0,46863,0,0.00,0,0,0,0,37559,50000,4430,49503,0,0,0,0,0.00,0.00,0.00,0.00
2016-06-19 02:20:00,1,43496,0,0.00,0,2,1,0,34472,50000,5651,41740,0,0,0,0,0.00,0.00,0.00,0.00
2016-06-19 02:30:00,1,41654,0,0.00,0,2,1,1,32114,50000,6248,41233,0,0,0,0,0.00,0.00,0.00,0.00
2016-06-19 02:40:00,0,42146,0,0.00,0,2,1,0,30866,50000,6019,41208,0,0,0,0,0.00,0.00,0.00,0.00
2016-06-19 02:50:00,1,46766,0,0.00,0,2,1,2,40228,50000,3007,47422,0,0,0,0,0.00,0.00,0.00,0.00
2016-06-19 03:00:00,0,46418,0,0.00,0,2,1,0,36221,50000,3930,47234,0,0,0,0,0.00,0.00,0.00,0.00
2016-06-19 03:10:00,0,43546,0,0.00,0,2,1,0,29436,50000,8049,49364,0,0,0,0,0.00,0.00,0.00,0.00
2016-06-19 03:20:00,0,46185,0,0.00,0,0,0,0,39133,50000,3323,47228,0,0,0,0,0.00,0.00,0.00,0.00
2016-06-19 03:30:00,0,41560,0,0.00,0,0,0,0,26720,50000,8113,45074,0,0,0,0,0.00,0.00,0.00,0.00
2016-06-19 03:40:00,0,47740,0,0.00,0,0,0,0,43011,50000,2133,48229,0,0,0,0,0.00,0.00,0.00,0.00
2016-06-19 03:50:00,0,41918,0,0.00,0,0,0,0,28052,50000,7268,43520,0,0,0,0,0.00,0.00,0.00,0.00
2016-06-19 04:00:00,0,49676,0,0.00,0,0,0,0,47497,50000,759,50000,0,0,0,0,0.00,0.00,0.00,0.00
2016-06-19 04:10:00,0,49427,0,0.00,0,0,0,0,47110,50000,1147,50000,0,0,0,0,0.00,0.00,0.00,0.00
2016-06-19 04:20:00,0,48146,0,0.00,0,0,0,0,41254,50000,2855,50000,0,0,0,0,0.00,0.00,0.00,0.00
2016-06-19 04:30:00,0,49693,0,0.00,0,0,0,0,47359,50000,788,50000,0,0,0,0,0.00,0.00,0.00,0.00
2016-06-19 04:40:00,0,48740,0,0.00,0,0,0,0,45343,50000,1664,50000,0,0,0,0,0.00,0.00,0.00,0.00
2016-06-19 04:50:00,0,48345,0,0.00,0,0,0,0,41774,50000,2570,50000,0,0,0,0,0.00,0.00,0.00,0.00
2016-06-19 05:00:00,0,49167,0,0.00,0,0,0,0,47199,50000,1052,49772,0,0,0,0,0.00,0.00,0.00,0.00
2016-06-19 05:10:00,0,47316,0,0.00,0,0,0,0,39557,50000,3735,49208,0,0,0,0,0.00,0.00,0.00,0.00
2016-06-19 05:20:00,0,44008,0,0.00,0,0,0,0,32921,50000,5492,43748,0,0,0,0,0.00,0.00,0.00,0.00
2016-06-19 05:30:00,0,50000,0,0.00,0,0,0,0,50000,50000,0,50000,0,0,0,0,0.00,0.00,0.00,0.00
2016-06-19 05:40:00,0,49580,0,0.00,0,0,0,0,46375,50000,1082,50000,0,0,0,0,0.00,0.00,0.00,0.00
2016-06-19 05:50:00,0,49832,0,0.00,0,0,0,0,48797,50000,373,50000,0,0,0,0,0.00,0.00,0.00,0.00
2016-06-19 06:00:00,0,49378,0,0.00,0,0,0,0,46074,50000,1296,50000,0,0,0,0,0.00,0.00,0.00,0.00
2016-06-19 06:10:00,0,48416,0,0.00,0,0,0,0,43119,50000,2255,49822,0,0,0,0,0.00,0.00,0.00,0.00
2016-06-19 06:20:00,0,49564,0,0.00,0,0,0,0,47108,50000,871,50000,0,0,0,0,0.00,0.00,0.00,0.00
2016-06-19 06:30:00,0,49887,0,0.00,0,0,0,0,49172,50000,254,50000,0,0,0,0,0.00,0.00,0.00,0.00
2016-06-19 06:40:00,0,50000,0,0.00,0,0,0,0,50000,50000,0,50000,0,0,0,0,0.00,0.00,0.00,0.00
2016-06-19 06:50:00,0,49840,0,0.00,0,0,0,0,48857,50000,355,50000,0,0,0,0,0.00,0.00,0.00,0.00
2016-06-19 07:00:00,0,50000,0,0.00,0,0,0,0,50000,50000,0,50000,0,0,0,0,0.00,0.00,0.00,0.00
2016-06-19 07:10:00,0,49896,0,0.00,0,0,0,0,49319,50000,220,50000,0,0,0,0,0.00,0.00,0.00,0.00
2016-06-19 07:20:00,0,50000,0,0.00,0,0,0,0,50000,50000,0,50000,0,0,0,0,0.00,0.00,0.00,0.00
2016-06-19 07:30:00,0,50000,0,0.00,0,0,0,0,50000,50000,0,50000,0,0,0,0,0.00,0.00,0.00,0.00
2016-06-19 07:40:00,0,49184,0,0.00,0,0,0,0,45961,50000,1433,50000,0,0,0,0,0.00,0.00,0.00,0.00
2016-06-19 07:50:00,1,49152,0,0.00,0,2,1,1,46122,50000,1308,50000,0,0,0,0,0.00,0.00,0.00,0.00
2016-06-19 08:00:00,2,43544,22,0.18,0,2,1,2,33939,49235,4668,45780,0,61,28,0,0.00,0.80,0.26,0.00
2016-06-19 08:10:00,1,46893,31,0.04,0,2,1,2,28525,50000,6245,49210,0,51,25,51,0.00,0.15,0.05,0.00
2016-06-19 08:20:00,0,47784,0,0.00,0,0,0,0,38767,50000,3878,50000,0,0,0,0,0.00,0.00,0.00,0.00
2016-06-19 08:30:00,0,44748,0,0.00,0,0,0,0,19127,50000,10493,50000,0,0,0,0,0.00,0.00,0.00,0.00
2016-06-19 08:40:00,0,48327,0,0.00,0,0,0,0,36551,50000,4046,50000,0,0,0,0,0.00,0.00,0.00,0.00
2016-06-19 08:50:00,0,50000,0,0.00,0,0,0,0,50000,50000,0,50000,0,0,0,0,0.00,0.00,0.00,0.00
2016-06-19 09:00:00,0,50000,0,0.00,0,0,0,0,50000,50000,0,50000,0,0,0,0,0.00,0.00,0.00,0.00
2016-06-19 09:10:00,0,49925,0,0.00,0,0,0,0,49253,50000,224,50000,0,0,0,0,0.00,0.00,0.00,0.00
2016-06-19 09:20:00,1,49723,0,0.00,0,2,1,2,47231,50000,831,50000,0,0,0,0,0.00,0.00,0.00,0.00
2016-06-19 09:30:00,2,49957,0,0.00,2,2,0,2,49570,50000,129,50000,0,0,0,0,0.00,0.00,0.00,0.00
2016-06-19 09:40:00,2,49973,0,0.00,2,2,0,2,49732,50000,80,50000,0,0,0,0,0.00,0.00,0.00,0.00
2016-06-19 09:50:00,2,50000,0,0.00,2,2,0,2,50000,50000,0,50000,0,0,0,0,0.00,0.00,0.00,0.00
2016-06-19 10:00:00,2,49525,0,0.00,2,2,0,2,45253,50000,1424,50000,0,0,0,0,0.00,0.00,0.00,0.00
2016-06-19 10:10:00,2,50000,0,0.00,2,2,0,2,50000,50000,0,50000,0,0,0,0,0.00,0.00,0.00,0.00
2016-06-19 10:20:00,2,49450,0,0.00,2,2,0,2,46132,50000,1208,50000,0,0,0,0,0.00,0.00,0.00,0.00
2016-06-19 10:30:00,2,31361,23,0.16,2,2,0,2,14459,50000,10747,32730,0,52,24,20,0.00,0.60,0.23,0.00
2016-06-19 10:40:00,2,39918,36,0.06,2,2,0,2,29640,46447,4903,40948,0,51,23,51,0.00,0.20,0.07,0.03
2016-06-19 10:50:00,2,39088,49,0.13,2,2,0,2,21529,46522,7259,40981,0,61,17,51,0.00,0.35,0.09,0.12
2016-06-19 11:00:00,2,42533,51,0.36,2,2,0,2,34214,48577,4691,42468,51,52,0,51,0.00,0.90,0.28,0.38
2016-06-19 11:10:00,2,50000,5,0.00,2,2,0,2,50000,50000,0,50000,0,51,15,0,0.00,0.00,0.00,0.00
2016-06-19 11:20:00,2,49864,0,0.00,2,2,0,2,48642,50000,407,50000,0,0,0,0,0.00,0.00,0.00,0.00
2016-06-19 11:30:00,2,49870,0,0.00,2,2,0,2,48695,50000,392,50000,0,0,0,0,0.00,0.00,0.00,0.00
2016-06-19 11:40:00,2,50000,0,0.00,2,2,0,2,50000,50000,0,50000,0,0,0,0,0.00,0.00,0.00,0.00
2016-06-19 11:50:00,2,49368,0,0.00,2,2,0,2,46124,50000,1305,50000,0,0,0,0,0.00,0.00,0.00,0.00
2016-06-19 12:00:00,2,49522,28,0.06,2,2,0,2,46613,50000,1045,50000,0,51,24,40,0.00,0.30,0.09,0.03
2016-06-19 12:10:00,2,48565,54,0.44,2,2,0,2,40877,50000,2761,50000,51,61,5,51,0.05,1.25,0.37,0.28
2016-06-19 12:20:00,2,49932,51,0.51,2,2,0,2,49318,50000,205,50000,51,52,0,51,0.15,0.90,0.26,0.48
2016-06-19 12:30:00,2,34967,52,1.07,2,2,0,2,22905,50000,9633,32260,51,52,0,52,0.55,1.85,0.42,0.97
2016-06-19 12:40:00,2,35654,52,0.79,2,2,0,2,24361,43428,5755,33753,51,52,0,52,0.00,2.30,0.73,0.60
2016-06-19 12:50:00,2,49300,14,0.00,2,2,0,2,47261,50000,916,49761,0,51,22,0,0.00,0.00,0.00,0.00
2016-06-19 13:00:00,2,50000,0,0.00,2,2,0,2,50000,50000,0,50000,0,0,0,0,0.00,0.00,0.00,0.00
2016-06-19 13:10:00,2,49936,0,0.00,2,2,0,2,49364,50000,191,50000,0,0,0,0,0.00,0.00,0.00,0.00
2016-06-19 13:20:00,2,49881,0,0.00,2,2,0,2,49338,50000,240,50000,0,0,0,0,0.00,0.00,0.00,0.00
2016-06-19 13:30:00,2,50000,0,0.00,2,2,0,2,50000,50000,0,50000,0,0,0,0,0.00,0.00,0.00,0.00
2016-06-19 13:40:00,2,50000,0,0.00,2,2,0,2,50000,50000,0,50000,0,0,0,0,0.00,0.00,0.00,0.00
2016-06-19 13:50:00,2,50000,0,0.00,2,2,0,2,50000,50000,0,50000,0,0,0,0,0.00,0.00,0.00,0.00
2016-06-19 14:00:00,2,50000,0,0.00,2,2,0,2,50000,50000,0,50000,0,0,0,0,0.00,0.00,0.00,0.00
2016-06-19 14:10:00,2,49851,0,0.00,2,2,0,2,49044,50000,312,50000,0,0,0,0,0.00,0.00,0.00,0.00
2016-06-19 14:20:00,2,50000,0,0.00,2,2,0,2,50000,50000,0,50000,0,0,0,0,0.00,0.00,0.00,0.00
2016-06-19 14:30:00,2,50000,0,0.00,2,2,0,2,50000,50000,0,50000,0,0,0,0,0.00,0.00,0.00,0.00
2016-06-19 14:40:00,2,49824,0,0.00,2,2,0,2,48236,50000,529,50000,0,0,0,0,0.00,0.00,0.00,0.00
2016-06-19 14:50:00,2,49389,0,0.00,2,2,0,2,47026,50000,1160,50000,0,0,0,0,0.00,0.00,0.00,0.00
2016-06-19 15:00:00,2,49858,0,0.00,2,2,0,2,48884,50000,337,50000,0,0,0,0,0.00,0.00,0.00,0.00
2016-06-19 15:10:00,2,49885,0,0.00,2,2,0,2,48852,50000,344,50000,0,0,0,0,0.00,0.00,0.00,0.00
2016-06-19 15:20:00,2,49546,0,0.00,2,2,0,2,46732,50000,1010,50000,0,0,0,0,0.00,0.00,0.00,0.00
2016-06-19 15:30:00,2,49688,0,0.00,2,2,0,2,48760,50000,446,50000,0,0,0,0,0.00,0.00,0.00,0.00
2016-06-19 15:40:00,2,48169,0,0.00,2,2,0,2,40916,50000,2842,50000,0,0,0,0,0.00,0.00,0.00,0.00
2016-06-19 15:50:00,2,47742,0,0.00,2,2,0,2,44764,50000,1817,47600,0,0,0,0,0.00,0.00,0.00,0.00
2016-06-19 16:00:00,2,47196,0,0.00,2,2,0,2,43284,50000,2365,47280,0,0,0,0,0.00,0.00,0.00,0.00
2016-06-19 16:10:00,2,47921,0,0.00,2,2,0,2,43928,50000,2363,49021,0,0,0,0,0.00,0.00,0.00,0.00
2016-06-19 16:20:00,2,49242,0,0.00,2,2,0,2,46814,50000,1186,50000,0,0,0,0,0.00,0.00,0.00,0.00
2016-06-19 16:30:00,2,49555,0,0.00,2,2,0,2,46347,50000,1095,50000,0,0,0,0,0.00,0.00,0.00,0.00
2016-06-19 16:40:00,2,50000,0,0.00,2,2,0,2,50000,50000,0,50000,0,0,0,0,0.00,0.00,0.00,0.00
2016-06-19 16:50:00,2,50000,0,0.00,2,2,0,2,50000,50000,0,50000,0,0,0,0,0.00,0.00,0.00,0.00
2016-06-19 17:00:00,2,50000,0,0.00,2,2,0,2,50000,50000,0,50000,0,0,0,0,0.00,0.00,0.00,0.00
2016-06-19 17:10:00,2,50000,0,0.00,2,2,0,2,50000,50000,0,50000,0,0,0,0,0.00,0.00,0.00,0.00
2016-06-19 17:20:00,2,50000,0,0.00,2,2,0,2,50000,50000,0,50000,0,0,0,0,0.00,0.00,0.00,0.00
2016-06-19 17:30:00,2,49876,0,0.00,2,2,0,2,49280,50000,246,50000,0,0,0,0,0.00,0.00,0.00,0.00
2016-06-19 17:40:00,2,49883,0,0.00,2,2,0,2,48828,50000,352,50000,0,0,0,0,0.00,0.00,0.00,0.00
2016-06-19 17:50:00,2,49818,0,0.00,2,2,0,2,48184,50000,545,50000,0,0,0,0,0.00,0.00,0.00,0.00
2016-06-19 18:00:00,2,48401,0,0.00,2,2,0,2,39880,50000,3084,50000,0,0,0,0,0.00,0.00,0.00,0.00
2016-06-19 18:10:00,2,46588,0,0.00,2,2,0,2,39898,50000,2942,47152,0,0,0,0,0.00,0.00,0.00,0.00
2016-06-19 18:20:00,2,40413,0,0.00,2,2,0,2,33678,50000,4799,39130,0,0,0,0,0.00,0.00,0.00,0.00
2016-06-19 18:30:00,2,42543,0,0.00,2,2,0,2,35694,49478,4689,44992,0,0,0,0,0.00,0.00,0.00,0.00
2016-06-19 18:40:00,2,35336,0,0.00,2,2,0,2,27030,38711,3957,36645,0,0,0,0,0.00,0.00,0.00,0.00
2016-06-19 18:50:00,2,33994,0,0.00,2,2,0,2,29026,42244,3810,34418,0,0,0,0,0.00,0.00,0.00,0.00
2016-06-19 19:00:00,2,30815,0,0.00,2,2,0,2,25574,35650,2491,30556,0,0,0,0,0.00,0.00,0.00,0.00
2016-06-19 19:10:00,2,29324,0,0.00,2,2,0,2,26521,33822,2462,28260,0,0,0,0,0.00,0.00,0.00,0.00
2016-06-19 19:20:00,2,32606,0,0.00,2,2,0,2,28397,36080,2593,33104,0,0,0,0,0.00,0.00,0.00,0.00
2016-06-19 19:30:00,2,38034,0,0.00,2,2,0,2,32705,46285,3943,37336,0,0,0,0,0.00,0.00,0.00,0.00
2016-06-19 19:40:00,2,37709,0,0.00,2,2,0,2,32583,42724,2726,37916,0,0,0,0,0.00,0.00,0.00,0.00
2016-06-19 19:50:00,2,38876,18,0.02,2,2,0,2,29892,50000,6130,36848,0,51,23,0,0.00,0.10,0.03,0.00
2016-06-19 20:00:00,2,36348,45,0.13,2,2,0,2,29964,43659,4936,34944,0,61,23,51,0.00,0.65,0.19,0.08
2016-06-19 20:10:00,2,29765,58,0.53,2,2,0,2,28054,32070,1391,29620,51,61,5,61,0.10,1.20,0.33,0.50
2016-06-19 20:20:00,2,26108,51,0.21,2,2,0,2,23388,30054,1809,26018,51,51,0,51,0.00,0.55,0.17,0.17
2016-06-19 20:30:00,2,31338,58,0.66,2,2,0,2,26549,36557,3024,32139,51,61,5,61,0.00,2.10,0.66,0.45
2016-06-19 20:40:00,2,24430,61,0.59,2,2,0,2,17784,30887,4097,23860,61,61,0,61,0.00,1.85,0.47,0.45
2016-06-19 20:50:00,2,24442,55,0.33,2,2,0,2,21044,29425,3179,23802,51,61,5,51,0.00,0.75,0.24,0.23
2016-06-19 21:00:00,2,20795,53,0.10,2,2,0,2,18406,22413,1273,21154,51,61,4,51,0.00,0.40,0.12,0.05
2016-06-19 21:10:00,2,18060,36,0.11,2,2,0,2,14308,22312,2184,17709,0,51,23,51,0.00,0.65,0.20,0.00
2016-06-19 21:20:00,2,24430,0,0.00,2,2,0,2,18492,29861,3409,25278,0,0,0,0,0.00,0.00,0.00,0.00
2016-06-19 21:30:00,2,26742,0,0.00,2,2,0,2,25328,28331,909,26499,0,0,0,0,0.00,0.00,0.00,0.00
2016-06-19 21:40:00,2,27179,0,0.00,2,2,0,2,21387,33916,3983,26967,0,0,0,0,0.00,0.00,0.00,0.00
2016-06-19 21:50:00,2,33198,0,0.00,2,2,0,2,29037,39186,3692,31774,0,0,0,0,0.00,0.00,0.00,0.00
2016-06-19 22:00:00,2,36095,0,0.00,2,2,0,2,31519,44746,3554,35252,0,0,0,0,0.00,0.00,0.00,0.00
2016-06-19 22:10:00,2,26213,0,0.00,2,2,0,2,14085,40440,9658,29390,0,0,0,0,0.00,0.00,0.00,0.00
2016-06-19 22:20:00,2,15658,0,0.00,2,2,0,2,11258,20373,2884,15826,0,0,0,0,0.00,0.00,0.00,0.00
2016-06-19 22:30:00,2,16041,0,0.00,2,2,0,2,13812,18146,1287,15893,0,0,0,0,0.00,0.00,0.00,0.00
2016-06-19 22:40:00,2,12711,0,0.00,2,2,0,2,9206,19480,3056,11500,0,0,0,0,0.00,0.00,0.00,0.00
2016-06-19 22:50:00,2,8296,28,0.12,2,2,0,2,6527,11049,1308,8236,0,51,24,40,0.00,0.40,0.13,0.08
2016-06-19 23:00:00,2,9130,51,0.24,2,2,0,2,7023,12269,1392,8718,51,51,0,51,0.05,0.65,0.17,0.20
2016-06-19 23:10:00,2,12926,51,0.07,2,2,0,2,8347,20273,3852,12504,51,51,0,51,0.00,0.25,0.07,0.05
2016-06-19 23:20:00,2,12954,26,0.10,2,2,0,2,7955,18230,3708,12443,0,51,26,26,0.00,0.35,0.13,0.00
2016-06-19 23:30:00,2,22229,0,0.00,2,2,0,2,14185,32182,5610,21387,0,0,0,0,0.00,0.00,0.00,0.00
2016-06-19 23:40:00,2,27255,0,0.00,2,2,0,2,15944,36414,6215,28394,0,0,0,0,0.00,0.00,0.00,0.00
2016-06-19 23:50:00,2,19165,0,0.00,2,2,0,2,13077,32223,5651,17882,0,0,0,0,0.00,0.00,0.00,0.00
